TimeCST,TemperatureF,Dew PointF,Humidity,Sea Level PressureIn,VisibilityMPH,Wind Direction,Wind SpeedMPH,Gust SpeedMPH,PrecipitationIn,Events,Conditions,WindDirDegrees,DateUTC
12:56 AM,39.0,35.1,86,30.25,10.0,NNW,4.6,-,N/A,,Clear,340,2012-12-13 06:56:00
1:56 AM,39.0,34.0,82,30.25,10.0,NNW,8.1,-,N/A,,Clear,340,2012-12-13 07:56:00
2:56 AM,37.9,33.1,83,30.25,10.0,North,6.9,-,N/A,,Clear,350,2012-12-13 08:56:00
3:56 AM,37.9,33.1,83,30.24,10.0,North,8.1,-,N/A,,Clear,360,2012-12-13 09:56:00
4:56 AM,37.0,34.0,89,30.25,10.0,North,4.6,-,N/A,,Clear,350,2012-12-13 10:56:00
5:56 AM,35.1,34.0,96,30.26,10.0,North,4.6,-,N/A,,Clear,350,2012-12-13 11:56:00
6:56 AM,37.0,35.1,93,30.29,10.0,North,6.9,-,N/A,,Clear,360,2012-12-13 12:56:00
7:56 AM,42.1,37.9,85,30.30,10.0,North,10.4,-,N/A,,Clear,10,2012-12-13 13:56:00
8:56 AM,48.9,41.0,74,30.32,10.0,NNE,12.7,-,N/A,,Clear,20,2012-12-13 14:56:00
9:56 AM,53.1,41.0,64,30.32,10.0,NNE,9.2,-,N/A,,Clear,20,2012-12-13 15:56:00
10:56 AM,57.9,42.1,56,30.31,10.0,NE,16.1,21.9,N/A,,Clear,40,2012-12-13 16:56:00
11:56 AM,60.1,42.1,51,30.29,10.0,NNE,10.4,-,N/A,,Clear,20,2012-12-13 17:56:00
12:56 PM,62.1,41.0,46,30.26,10.0,NNE,9.2,-,N/A,,Clear,30,2012-12-13 18:56:00
1:56 PM,64.0,39.9,41,30.23,10.0,NNE,11.5,-,N/A,,Partly Cloudy,20,2012-12-13 19:56:00
2:56 PM,62.1,45.0,53,30.23,10.0,ENE,6.9,-,N/A,,Partly Cloudy,70,2012-12-13 20:56:00
3:56 PM,61.0,44.1,54,30.23,10.0,ENE,5.8,-,N/A,,Clear,70,2012-12-13 21:56:00
4:56 PM,52.0,46.9,83,30.24,10.0,Calm,Calm,-,N/A,,Clear,0,2012-12-13 22:56:00
5:56 PM,48.0,45.0,89,30.25,10.0,Calm,Calm,-,N/A,,Clear,0,2012-12-13 23:56:00
6:56 PM,44.1,44.1,100,30.27,10.0,Calm,Calm,-,N/A,,Clear,0,2012-12-14 00:56:00
7:56 PM,45.0,44.1,97,30.28,10.0,Calm,Calm,-,N/A,,Clear,0,2012-12-14 01:56:00
8:56 PM,42.1,41.0,96,30.28,10.0,Calm,Calm,-,N/A,,Clear,0,2012-12-14 02:56:00
9:56 PM,42.1,41.0,96,30.30,10.0,Calm,Calm,-,N/A,,Clear,0,2012-12-14 03:56:00
10:56 PM,44.1,43.0,96,30.30,10.0,NNE,4.6,-,0.00,Rain,Light Rain,20,2012-12-14 04:56:00
11:56 PM,45.0,44.1,97,30.28,10.0,NE,5.8,-,0.00,Rain,Light Rain,50,2012-12-14 05:56:00